Voltar ao catálogo

COSMOS 1275 DEB

AtivoPO
NORAD 42166·DEBRIS·🇷🇺 Russia

Lançado Jun 4, 1981 de Plesetsk Cosmodrome

Loading…

Próximas Passagens (próximas 24 horas)

TLE

EnvelhecendoSource: Space-Track

Época: Sep 8, 2026, 02:45 UTC

1 42166U 81053SE  26251.11476943  .00001686  00000-0  10643-2 0  9994
2 42166  82.8855 183.2211 0138127 308.4836  50.4007 13.99114651647631

Acompanhe COSMOS 1275 DEB em tempo real com AllMySat

Download on the App Store